Temperature
21 21 20 20 20 20 20 19 19 19 19 19 19 19 19 18 18 18 18 18 18 18 18 18 18 18 17 17 17 17 17 16 16 16 16 16 16 16 16 16 16 15 15
21 21 20 20 20 20 20 20 19 19 19 19 19 19 19 18 18 18 18 18 18 18 18 18 17 17 17 17 17 17 17 16 16 16 16 16 16 16 16 15 15 15 15
21 21 20 20 20 20 20 20 19 19 19 19 18 18 18 18 18 18 18 18 18 18 18 17 17 17 17 17 17 17 16 16 16 16 16 16 16 15 15 15 15 15 15
21 21 21 20 20 20 20 19 19 19 19 18 18 18 18 18 18 18 18 17 17 17 17 17 17 17 17 17 17 17 16 16 16 16 15 15 15 15 15 15 15 15 15
21 21 21 20 20 20 19 19 19 19 18 18 18 18 18 18 18 17 17 17 17 17 17 17 17 17 17 16 16 16 16 16 16 15 15 15 15 15 14 14 14 15 14
21 21 20 20 20 20 20 19 19 19 18 18 18 18 18 18 18 17 17 17 17 17 17 17 17 16 16 16 16 16 16 15 15 15 15 14 14 14 14 14 14 14 14
21 20 20 20 20 19 19 19 19 18 18 18 18 18 18 17 17 17 17 17 17 17 16 16 16 16 16 16 16 16 15 15 15 15 15 14 14 14 14 14 14 13 13
20 20 20 20 19 19 19 19 18 18 18 18 18 17 17 17 17 17 17 16 16 16 16 16 16 16 16 16 16 15 15 15 15 15 14 14 14 14 14 14 13 13 13
20 20 20 19 19 19 19 19 18 18 18 18 17 17 17 17 17 16 16 16 16 16 16 16 16 16 16 15 15 15 15 15 14 14 14 14 14 14 13 13 13 13 13
20 19 19 19 19 19 18 18 18 18 18 17 17 17 17 17 16 16 16 16 16 16 16 15 15 15 15 15 14 14 14 14 14 14 14 14 14 13 13 13 13 13 12
19 19 19 19 19 18 18 18 18 17 17 17 17 16 16 16 16 16 16 15 15 15 15 15 15 15 14 14 14 14 14 14 14 13 13 13 13 13 13 13 13 12 12
19 19 18 18 18 17 17 17 17 17 17 16 16 16 16 15 15 15 15 15 15 14 14 14 14 14 14 14 13 13 13 13 13 13 13 13 13 13 13 12 12 12 12
18 18 18 17 17 17 17 16 16 16 16 16 15 15 15 15 15 14 14 14 14 14 14 13 13 13 13 13 13 13 13 12 12 12 12 12 12 12 12 12 12 12 12
17 17 17 16 16 16 16 16 16 16 15 15 15 15 14 14 14 14 14 14 14 13 13 13 13 13 12 12 12 12 12 12 12 12 12 12 12 12 12 11 11 11 11
17 16 16 16 16 16 16 15 15 15 15 15 15 15 14 14 14 14 13 13 13 13 13 12 12 12 12 12 12 12 12 11 11 11 11 11 11 11 11 11 11 10 10
16 16 15 15 15 15 15 15 15 14 14 14 14 14 14 14 13 13 13 13 13 12 12 12 12 12 11 11 11 11 11 11 11 11 10 10 10 10 10 10 10 10 10
15 15 15 15 15 14 14 14 14 14 13 13 13 13 13 13 13 13 12 12 12 12 12 11 11 11 11 11 11 10 10 10 10 10 10 10 9 9 9 9 9 9 9
15 15 15 14 14 14 14 13 13 13 13 13 13 12 12 12 12 12 12 12 11 11 11 11 11 11 10 10 10 10 10 10 9 9 9 9 9 9 8 8 8 8 8
14 14 14 14 14 13 13 13 13 13 12 12 12 12 12 11 11 11 11 11 11 11 11 11 10 10 10 9 9 9 9 9 9 9 9 8 8 8 8 8 8 8 8
14 14 14 14 14 13 13 13 12 12 12 12 11 11 11 11 11 11 11 11 10 10 10 10 10 9 9 9 9 9 9 9 8 8 8 8 8 8 8 7 7 7 7
13 13 13 13 13 13 12 12 12 12 11 11 11 11 11 11 10 10 10 10 10 10 10 9 9 9 9 8 8 8 8 8 8 8 7 7 7 7 7 7 7 7 7
13 13 13 13 13 12 12 12 11 11 11 11 11 10 10 10 10 10 10 9 9 9 9 9 9 8 8 8 8 8 8 8 7 7 7 7 7 7 7 7 7 7 6
12 12 12 12 12 12 11 11 11 11 10 10 10 10 10 10 10 9 9 9 9 9 8 8 8 8 8 8 8 7 7 7 7 7 7 7 7 6 6 6 6 6 6
12 12 12 12 11 11 11 11 11 10 10 10 10 9 9 9 9 9 9 9 8 8 8 8 8 8 7 7 7 7 7 7 7 7 7 6 6 6 6 6 6 6 6
11 11 11 11 11 11 10 10 10 10 10 9 9 9 9 9 8 8 8 8 8 8 7 7 7 7 7 7 7 7 7 7 7 6 6 6 6 6 6 6 6 6 5
11 11 11 10 10 10 10 10 9 9 9 9 9 8 8 8 8 8 7 7 7 7 7 7 7 7 7 7 7 6 6 6 6 6 6 6 6 6 6 5 5 5 5
Wind_Speed
8 7 6 5 5 5 5 5 4 4 4 4 4 4 3 3 2 3 3 3 2 2 2 2 2 2 2 2 2 2 3 3 4 4 2 2 2 2 2 2 3 3 3
7 6 6 5 5 5 5 4 4 4 4 4 4 4 4 3 3 3 4 3 3 3 2 2 2 2 2 2 2 2 3 3 3 4 2 1 2 2 2 2 2 3 4
7 7 6 6 6 6 5 4 3 3 3 3 3 4 4 3 3 3 3 3 3 3 3 3 3 2 2 2 2 2 2 2 3 3 3 1 1 1 2 2 2 2 3
7 8 7 7 6 6 5 4 4 3 3 4 4 4 3 3 3 4 3 3 3 3 3 3 3 3 4 3 3 2 2 2 2 3 3 2 2 1 1 2 2 2 2
7 7 7 6 5 5 4 4 3 3 4 4 3 3 3 3 3 3 4 4 4 3 3 3 3 4 4 4 3 3 2 2 2 2 3 2 2 1 2 2 2 3 3
7 7 6 6 5 5 5 5 4 4 3 3 4 4 3 3 3 4 4 3 3 3 3 3 3 3 3 4 4 4 4 4 4 3 3 4 4 4 3 3 2 2 3
7 6 6 6 6 6 5 5 5 4 4 4 4 4 3 3 4 4 4 3 3 3 3 3 3 2 2 2 2 2 3 4 5 5 5 6 5 5 4 4 4 4 4
6 6 6 6 6 5 5 5 5 4 4 4 4 4 3 3 4 4 4 2 2 2 3 3 3 2 2 2 1 1 2 3 3 4 5 6 6 5 5 5 5 4 3
6 6 5 6 5 5 5 5 4 4 4 4 3 4 4 3 4 4 4 2 1 2 3 2 2 3 3 2 1 1 2 3 3 2 3 4 4 5 4 2 2 2 3
5 5 5 5 6 6 6 5 4 4 4 3 3 3 4 3 4 4 3 2 1 2 2 2 1 2 2 2 2 2 3 4 3 3 3 4 3 3 2 3 4 3 3
4 4 5 5 6 5 5 4 3 3 3 3 3 2 2 3 4 4 4 3 3 2 2 1 1 1 1 1 1 2 4 3 2 2 2 3 3 2 2 2 3 4 4
3 3 4 4 4 4 4 3 3 4 4 3 2 2 1 1 2 3 4 4 4 3 2 1 1 1 1 0 0 1 2 1 1 2 2 3 3 3 3 3 3 4 4
3 3 3 3 4 4 5 5 4 3 3 3 3 3 2 1 1 2 3 3 4 2 2 2 2 2 1 1 1 1 1 1 1 1 2 3 3 4 3 2 2 2 2
2 3 3 3 3 3 3 3 4 4 4 3 4 3 3 2 2 2 2 2 2 2 1 2 2 2 1 1 1 1 1 1 1 2 3 3 3 2 2 2 2 2 2
2 2 3 3 3 2 2 1 3 3 5 5 4 4 4 4 4 4 3 2 2 2 2 1 1 1 1 1 1 1 1 1 1 2 2 3 3 3 3 2 2 1 2
2 2 3 3 2 3 2 1 2 1 2 3 4 4 3 4 5 5 4 4 4 5 3 2 1 1 1 1 1 1 1 1 2 2 2 2 2 3 3 3 2 2 2
3 3 2 3 3 3 3 3 1 2 3 2 3 4 5 5 5 4 3 3 4 5 2 2 2 2 2 2 2 2 2 2 2 1 2 2 2 3 3 3 3 3 3
2 3 3 3 3 3 3 3 3 3 1 1 1 1 4 5 5 5 5 4 2 2 2 3 3 3 3 3 3 3 2 2 2 2 2 2 2 3 3 3 3 3 4
2 2 2 2 2 2 2 3 3 3 2 2 0 1 1 2 3 4 5 2 3 3 3 3 3 3 3 3 3 3 3 3 2 2 3 3 3 3 3 3 3 3 3
1 2 2 2 2 2 2 3 3 3 3 3 2 2 1 2 1 2 2 2 2 3 3 3 3 3 3 3 3 3 3 3 3 3 3 3 3 3 3 3 3 3 3
1 2 2 2 2 2 2 3 3 3 3 3 3 3 4 3 3 3 3 3 3 3 3 2 2 2 2 2 2 2 2 3 3 3 3 3 3 2 2 2 2 2 2
1 1 2 2 2 2 2 2 3 3 3 3 2 2 3 2 2 2 2 2 2 2 2 2 2 2 2 3 3 2 2 3 3 3 3 3 3 2 2 2 2 2 2
2 2 2 1 2 2 2 1 1 2 2 2 2 1 1 2 2 2 1 1 1 1 1 1 1 1 1 2 2 2 3 3 4 4 4 3 3 3 2 2 2 2 2
2 2 2 2 2 2 1 1 1 1 2 2 1 1 1 1 1 1 0 0 0 0 0 1 1 1 2 2 2 3 3 4 4 4 5 4 4 3 3 2 3 3 3
2 2 2 2 2 2 2 2 2 2 2 2 2 1 1 1 1 0 0 0 0 0 1 1 1 2 2 2 2 3 3 4 4 3 3 3 4 3 3 3 3 3 3
2 2 2 2 2 2 2 2 2 2 2 2 2 2 1 1 1 0 0 1 1 1 1 1 1 2 2 2 2 3 3 3 3 3 3 3 3 3 3 3 3 3 3
Wind_Direction
193 193 199 198 194 190 199 208 207 209 200 197 194 192 192 194 193 182 199 206 208 228 226 211 237 235 236 240 220 212 214 209 248 280 274 290 270 276 283 265 252 260 270
189 184 192 190 187 190 200 208 205 208 205 199 186 187 195 198 196 191 206 214 210 225 228 216 246 244 236 245 231 228 224 215 229 267 286 287 266 267 279 275 274 268 264
183 183 189 190 189 195 200 200 196 196 195 193 184 193 203 201 198 200 207 221 223 225 224 222 241 237 256 261 249 244 243 235 225 242 268 273 282 282 293 287 283 284 280
181 183 189 195 196 197 195 193 195 193 193 203 197 195 200 202 206 204 200 208 219 230 232 229 234 231 238 246 251 247 245 249 241 243 262 274 268 267 254 274 292 290 284
177 184 192 194 188 181 179 185 192 193 204 202 196 196 200 202 214 202 199 205 211 224 239 241 239 237 236 238 242 237 231 245 252 256 268 274 269 262 261 255 269 287 281
184 192 188 183 183 184 187 183 184 191 195 193 198 195 201 220 215 203 196 202 210 219 238 256 260 256 250 245 238 233 223 232 240 245 257 259 260 254 252 243 250 280 284
184 187 184 182 187 193 195 186 189 193 188 196 202 195 201 216 207 201 193 192 208 226 236 247 260 270 255 265 266 267 262 245 228 232 247 254 257 250 241 244 239 243 254
183 187 188 186 191 188 185 191 196 192 192 196 198 199 200 216 200 192 182 174 192 225 236 232 236 257 259 238 249 298 294 284 258 241 246 259 260 254 232 235 240 248 257
186 188 188 185 187 185 188 198 201 192 194 196 195 191 189 205 193 183 169 167 192 231 239 233 229 245 253 214 196 258 295 302 305 290 272 277 280 274 241 227 231 242 268
198 199 186 182 187 189 194 197 199 187 188 179 178 188 188 195 186 171 163 165 207 246 268 272 244 230 241 213 209 228 267 286 310 325 326 326 321 318 264 223 227 236 253
192 192 188 188 193 190 183 183 179 175 167 167 171 172 180 193 188 182 181 191 205 214 233 272 281 199 207 228 211 243 255 265 293 296 307 320 326 323 299 257 234 230 238
170 179 187 194 200 188 173 173 170 171 172 177 173 174 171 195 198 203 191 191 189 192 212 229 228 188 186 148 72 293 289 304 311 315 320 321 318 314 307 286 261 244 243
156 170 180 192 200 184 174 176 176 174 180 190 184 193 204 201 201 194 187 182 175 180 195 185 186 173 145 72 359 349 13 18 333 307 302 298 296 296 305 308 299 287 283
163 179 174 176 183 173 170 177 182 189 190 193 193 197 202 200 206 206 196 180 160 150 163 161 155 145 103 49 18 4 349 314 266 280 294 299 307 311 317 313 295 294 302
175 186 177 175 173 158 147 169 195 206 200 196 200 195 194 207 219 204 187 183 182 180 149 126 99 62 15 350 343 333 330 332 310 298 298 308 315 317 320 322 295 284 280
176 186 184 180 174 170 157 95 43 164 176 186 188 183 198 199 181 184 182 164 152 143 126 154 192 216 240 257 275 295 296 297 298 291 287 297 304 308 313 324 317 296 285
190 201 196 186 186 187 187 184 188 36 68 95 151 169 172 171 166 171 166 143 138 135 131 184 208 222 240 249 252 256 266 278 282 279 283 290 293 297 303 309 314 312 300
194 199 197 199 196 197 200 199 194 188 181 1 12 171 173 170 170 170 154 122 122 147 185 210 224 230 236 245 253 260 263 268 272 277 284 287 286 288 295 301 298 303 302
204 200 195 189 188 192 188 185 188 188 188 196 226 349 145 149 157 164 154 162 190 210 219 226 232 233 238 242 247 249 248 254 264 270 278 282 280 279 281 286 289 296 296
198 183 188 172 171 180 183 184 190 193 196 199 211 212 160 134 155 181 194 204 208 222 228 229 232 232 234 242 246 246 251 258 260 260 269 275 275 271 273 284 292 301 300
179 177 173 173 188 189 191 194 197 200 207 212 220 213 190 187 201 210 212 221 223 228 233 232 229 229 232 239 243 246 253 261 261 260 262 267 268 271 275 275 278 286 296
167 175 175 173 175 172 184 196 199 199 205 215 220 203 192 192 200 207 211 219 223 226 227 224 230 236 236 235 232 237 247 260 264 262 263 267 265 266 271 275 286 292 291
143 143 144 141 147 149 155 166 171 176 182 201 192 181 193 207 207 202 207 237 250 242 231 215 226 243 249 240 231 230 237 249 253 249 248 253 253 252 257 262 267 276 283
110 125 132 125 120 123 129 128 130 144 154 156 156 164 174 173 172 179 175 288 341 331 271 224 217 237 259 261 252 249 249 251 250 241 231 230 240 246 248 253 259 263 270
97 112 119 119 113 104 98 96 100 105 115 122 127 129 128 125 121 93 30 281 297 315 318 285 255 258 269 274 271 267 265 258 252 247 229 223 229 235 240 248 252 262 266
86 94 95 102 106 108 112 111 103 102 102 104 112 115 117 117 113 51 312 309 326 325 315 298 294 293 295 293 294 290 273 268 268 263 241 222 223 234 238 245 251 254 264
Height
1510 1513 1516 1518 1519 1521 1522 1523 1524 1525 1526 1526 1527 1528 1529 1530 1531 1532 1532 1533 1533 1533 1533 1533 1533 1533 1532 1532 1531 1531 1530 1530 1528 1527 1527 1527 1526 1525 1524 1524 1523 1523 1522
1508 1510 1513 1515 1517 1518 1520 1521 1522 1522 1523 1524 1524 1525 1526 1527 1528 1529 1529 1530 1530 1530 1530 1530 1530 1530 1529 1529 1529 1528 1527 1527 1526 1524 1524 1523 1523 1522 1521 1520 1520 1519 1519
1505 1508 1510 1512 1513 1515 1517 1518 1519 1520 1520 1521 1522 1522 1523 1524 1525 1526 1526 1527 1527 1527 1527 1527 1527 1527 1526 1526 1525 1525 1524 1524 1523 1522 1520 1520 1519 1519 1518 1517 1517 1516 1516
1502 1504 1506 1509 1511 1512 1514 1515 1517 1517 1518 1519 1519 1520 1520 1521 1522 1523 1523 1524 1524 1524 1524 1524 1524 1523 1523 1523 1522 1522 1521 1520 1520 1519 1517 1516 1516 1515 1515 1514 1513 1513 1512
1499 1501 1503 1506 1508 1509 1511 1512 1514 1514 1515 1517 1517 1517 1518 1519 1519 1520 1521 1521 1521 1521 1521 1521 1520 1520 1519 1519 1519 1518 1518 1517 1516 1515 1514 1513 1512 1511 1511 1510 1509 1509 1508
1496 1499 1501 1503 1505 1506 1507 1508 1510 1511 1512 1513 1514 1514 1515 1516 1516 1517 1518 1518 1517 1517 1517 1517 1517 1516 1516 1516 1515 1515 1514 1513 1512 1511 1510 1509 1508 1508 1507 1507 1506 1505 1504
1494 1496 1498 1499 1501 1503 1504 1505 1505 1507 1509 1510 1511 1511 1512 1512 1513 1514 1514 1514 1514 1514 1514 1513 1513 1513 1513 1512 1511 1511 1510 1510 1509 1508 1506 1505 1504 1504 1503 1503 1502 1501 1500
1491 1493 1494 1496 1498 1500 1501 1502 1503 1504 1505 1506 1507 1508 1508 1509 1509 1510 1510 1510 1510 1510 1510 1509 1509 1509 1509 1508 1507 1506 1506 1505 1504 1504 1503 1502 1501 1500 1500 1499 1498 1497 1496
1487 1489 1491 1493 1495 1496 1497 1499 1500 1500 1501 1502 1503 1504 1504 1505 1506 1506 1506 1506 1506 1506 1505 1505 1505 1505 1504 1504 1503 1502 1501 1501 1501 1500 1499 1498 1497 1497 1496 1495 1494 1493 1491
1484 1487 1488 1490 1491 1492 1493 1495 1496 1497 1497 1498 1499 1500 1501 1501 1502 1502 1503 1502 1502 1502 1501 1501 1501 1501 1500 1500 1499 1498 1497 1497 1496 1496 1495 1494 1493 1492 1491 1491 1490 1489 1488
1481 1483 1485 1486 1487 1488 1490 1491 1492 1493 1493 1494 1495 1496 1497 1498 1498 1498 1499 1498 1497 1497 1497 1496 1496 1497 1496 1496 1496 1495 1494 1493 1492 1492 1491 1490 1489 1488 1487 1486 1486 1485 1484
1477 1479 1480 1482 1484 1484 1485 1487 1488 1489 1489 1490 1490 1491 1492 1494 1494 1494 1494 1494 1494 1493 1492 1492 1492 1492 1492 1492 1492 1491 1491 1490 1489 1488 1487 1486 1485 1484 1483 1482 1481 1481 1480
1474 1475 1476 1478 1479 1480 1481 1483 1484 1484 1485 1485 1486 1487 1487 1489 1489 1489 1490 1489 1489 1489 1488 1488 1488 1488 1488 1488 1488 1488 1487 1486 1485 1484 1483 1482 1481 1480 1479 1478 1477 1477 1476
1471 1472 1473 1475 1476 1477 1477 1479 1479 1480 1480 1481 1482 1482 1483 1484 1484 1485 1485 1485 1485 1484 1484 1484 1484 1484 1485 1484 1484 1484 1483 1482 1481 1480 1479 1478 1477 1476 1475 1474 1473 1473 1472
1468 1469 1470 1471 1472 1473 1474 1475 1476 1477 1477 1478 1478 1479 1479 1479 1480 1480 1480 1480 1480 1480 1480 1481 1481 1481 1480 1480 1480 1479 1479 1479 1478 1477 1475 1474 1473 1472 1471 1470 1469 1468 1468
1466 1466 1467 1468 1469 1470 1470 1471 1472 1473 1474 1474 1474 1475 1475 1476 1476 1477 1477 1477 1477 1478 1477 1477 1477 1477 1477 1476 1476 1475 1475 1475 1474 1473 1472 1471 1470 1468 1467 1466 1465 1464 1464
1463 1464 1464 1465 1466 1467 1467 1468 1468 1469 1470 1471 1471 1471 1472 1472 1472 1473 1474 1474 1474 1474 1474 1474 1474 1474 1473 1473 1473 1472 1471 1471 1471 1470 1468 1467 1466 1465 1464 1463 1461 1460 1460
1461 1461 1462 1462 1463 1464 1465 1465 1466 1466 1466 1466 1467 1468 1468 1468 1468 1468 1470 1470 1470 1470 1470 1471 1471 1471 1470 1470 1469 1469 1468 1468 1467 1466 1465 1464 1463 1462 1461 1460 1458 1457 1456
1457 1458 1459 1459 1460 1461 1462 1462 1463 1463 1463 1464 1464 1464 1465 1465 1465 1466 1466 1466 1466 1466 1467 1467 1467 1467 1467 1466 1466 1466 1465 1464 1463 1462 1461 1460 1460 1458 1457 1456 1456 1454 1454
1454 1455 1456 1456 1457 1458 1458 1459 1459 1460 1460 1460 1460 1461 1461 1462 1462 1462 1462 1462 1463 1463 1463 1464 1464 1464 1464 1463 1463 1462 1461 1460 1459 1458 1458 1457 1456 1455 1454 1453 1452 1451 1451
1452 1452 1453 1453 1454 1454 1455 1456 1456 1456 1457 1457 1457 1458 1459 1459 1459 1460 1460 1460 1460 1460 1460 1460 1460 1460 1460 1460 1459 1458 1458 1457 1456 1455 1454 1453 1452 1451 1451 1450 1449 1449 1448
1449 1449 1450 1450 1450 1451 1452 1453 1453 1453 1454 1454 1455 1455 1456 1456 1457 1457 1457 1457 1457 1457 1457 1457 1457 1457 1456 1456 1455 1455 1454 1453 1452 1451 1451 1450 1449 1448 1447 1447 1446 1445 1444
1447 1447 1448 1448 1448 1449 1449 1449 1450 1450 1451 1451 1452 1452 1453 1453 1454 1454 1454 1455 1454 1454 1454 1454 1454 1453 1453 1453 1452 1451 1451 1450 1449 1448 1447 1446 1445 1445 1444 1443 1443 1442 1441
1445 1445 1446 1446 1446 1446 1446 1447 1447 1448 1449 1449 1450 1450 1451 1451 1451 1452 1452 1452 1452 1452 1452 1451 1451 1451 1450 1450 1449 1448 1447 1446 1445 1444 1443 1442 1442 1442 1441 1440 1440 1439 1439
1444 1444 1444 1444 1444 1445 1445 1446 1446 1446 1447 1448 1448 1448 1449 1449 1449 1449 1449 1449 1449 1449 1449 1449 1448 1448 1447 1447 1446 1445 1444 1443 1442 1440 1439 1439 1439 1438 1438 1438 1437 1436 1436
1444 1444 1443 1443 1443 1444 1444 1444 1445 1445 1446 1446 1447 1447 1447 1447 1447 1447 1447 1447 1447 1447 1446 1446 1446 1445 1445 1444 1443 1442 1441 1440 1439 1438 1437 1436 1436 1435 1435 1435 1434 1434 1433